When you browse on this site, cookies collect data to enhance your experience and personalize the content and advertising you see.
Visit our Privacy Policy to learn more. By continuing to use the site, you agree to this use of cookies and data.
  • Em Portugal
  • Lista de países
  • Para 7 dias
  • Temperatura da água
  • Mapa do tempo
  • Widgets de tempo
  • user-avatar
    Iniciar Sessão

    Previsão horária em Newcastle

    Hoje, 22 Setembro, Domingo

    Tempo Temperatura Precipitação Vento Pressão Humidade
    00:00 +15°C° 0 mm 4 m/s 741 mmHg 67%
    01:00 +15°C° 0.3 mm 4 m/s 740 mmHg 73%
    02:00 +14°C° 0.3 mm 3 m/s 739 mmHg 78%
    03:00 +14°C° 0.3 mm 3 m/s 739 mmHg 84%
    04:00 +14°C° 0.3 mm 3 m/s 739 mmHg 85%
    05:00 +15°C° 0.3 mm 4 m/s 738 mmHg 87%
    06:00 +15°C° 0.3 mm 4 m/s 738 mmHg 89%
    07:00 +17°C° 0.2 mm 4 m/s 738 mmHg 88%
    08:00 +18°C° 0.2 mm 4 m/s 738 mmHg 88%
    09:00 +19°C° 0.2 mm 4 m/s 738 mmHg 87%
    10:00 +19°C° 0.3 mm 4 m/s 738 mmHg 86%
    11:00 +19°C° 0.3 mm 4 m/s 738 mmHg 85%
    12:00 +19°C° 0.3 mm 4 m/s 738 mmHg 84%
    13:00 +19°C° 0.8 mm 4 m/s 738 mmHg 86%
    14:00 +18°C° 0.8 mm 4 m/s 738 mmHg 87%
    15:00 +17°C° 0.8 mm 4 m/s 738 mmHg 89%
    16:00 +17°C° 0.3 mm 3 m/s 738 mmHg 90%
    17:00 +16°C° 0.3 mm 3 m/s 738 mmHg 91%
    18:00 +16°C° 0.3 mm 2 m/s 738 mmHg 92%
    19:00 +14°C° 0.1 mm 3 m/s 739 mmHg 93%
    20:00 +14°C° 0.1 mm 3 m/s 739 mmHg 93%
    21:00 +13°C° 0.1 mm 3 m/s 739 mmHg 94%
    22:00 +13°C° 0 mm 3 m/s 739 mmHg 94%
    23:00 +12°C° 0 mm 3 m/s 740 mmHg 95%

    Amanhã, 23 Setembro, Segunda-feira

    Tempo Temperatura Precipitação Vento Pressão Humidade
    00:00 +12°C° 0 mm 2 m/s 740 mmHg 96%
    01:00 +12°C° 0 mm 2 m/s 740 mmHg 96%
    02:00 +12°C° 0 mm 2 m/s 740 mmHg 96%
    03:00 +12°C° 0 mm 2 m/s 740 mmHg 96%
    04:00 +10°C° 0 mm 2 m/s 741 mmHg 96%
    05:00 +10°C° 0 mm 2 m/s 741 mmHg 96%
    06:00 +10°C° 0 mm 3 m/s 741 mmHg 96%
    07:00 +12°C° 0 mm 3 m/s 742 mmHg 92%
    08:00 +13°C° 0 mm 4 m/s 742 mmHg 87%
    09:00 +14°C° 0 mm 4 m/s 742 mmHg 83%
    10:00 +15°C° 0 mm 4 m/s 743 mmHg 78%
    11:00 +17°C° 0 mm 4 m/s 743 mmHg 73%
    12:00 +16°C° 0 mm 5 m/s 743 mmHg 68%
    13:00 +16°C° 0.1 mm 5 m/s 743 mmHg 70%
    14:00 +16°C° 0.1 mm 5 m/s 742 mmHg 73%
    15:00 +16°C° 0.1 mm 5 m/s 742 mmHg 75%
    16:00 +15°C° 0.1 mm 5 m/s 741 mmHg 80%
    17:00 +14°C° 0.1 mm 6 m/s 741 mmHg 84%
    18:00 +13°C° 0.1 mm 6 m/s 741 mmHg 88%
    19:00 +13°C° 0.2 mm 6 m/s 740 mmHg 90%
    20:00 +14°C° 0.2 mm 6 m/s 740 mmHg 91%
    21:00 +14°C° 0.2 mm 6 m/s 740 mmHg 93%
    22:00 +14°C° 0.1 mm 6 m/s 740 mmHg 94%
    23:00 +14°C° 0.1 mm 5 m/s 739 mmHg 95%

    Depois de amanhã, 24 Setembro, Terça-feira

    Tempo Temperatura Precipitação Vento Pressão Humidade
    00:00 +15°C° 0.1 mm 5 m/s 739 mmHg 95%
    01:00 +15°C° 0.4 mm 5 m/s 738 mmHg 95%
    02:00 +15°C° 0.4 mm 5 m/s 738 mmHg 96%
    03:00 +15°C° 0.4 mm 4 m/s 737 mmHg 96%
    04:00 +15°C° 0.3 mm 4 m/s 737 mmHg 96%
    05:00 +15°C° 0.3 mm 4 m/s 736 mmHg 96%
    06:00 +14°C° 0.3 mm 4 m/s 736 mmHg 96%
    07:00 +15°C° 1.2 mm 4 m/s 735 mmHg 93%
    08:00 +17°C° 1.2 mm 4 m/s 735 mmHg 90%
    09:00 +17°C° 1.2 mm 4 m/s 734 mmHg 87%
    10:00 +15°C° 2.6 mm 5 m/s 734 mmHg 89%
    11:00 +15°C° 2.6 mm 5 m/s 734 mmHg 92%
    12:00 +14°C° 2.6 mm 5 m/s 734 mmHg 94%
    13:00 +14°C° 1.2 mm 5 m/s 734 mmHg 92%
    14:00 +14°C° 1.2 mm 4 m/s 734 mmHg 90%
    15:00 +14°C° 1.2 mm 4 m/s 734 mmHg 88%
    16:00 +14°C° 0.3 mm 4 m/s 734 mmHg 89%
    17:00 +14°C° 0.3 mm 4 m/s 734 mmHg 89%
    18:00 +14°C° 0.3 mm 4 m/s 734 mmHg 90%
    19:00 +13°C° 0.1 mm 4 m/s 734 mmHg 91%
    20:00 +13°C° 0.1 mm 5 m/s 734 mmHg 92%
    21:00 +13°C° 0.1 mm 5 m/s 734 mmHg 94%
    22:00 +13°C° 0.4 mm 5 m/s 734 mmHg 94%
    23:00 +13°C° 0.4 mm 5 m/s 733 mmHg 94%

    25 Setembro, Quarta-feira

    Tempo Temperatura Precipitação Vento Pressão Humidade
    00:00 +13°C° 0.4 mm 5 m/s 733 mmHg 94%
    01:00 +13°C° 0.4 mm 5 m/s 733 mmHg 95%
    02:00 +13°C° 0.4 mm 4 m/s 733 mmHg 95%
    03:00 +13°C° 0.4 mm 3 m/s 733 mmHg 96%
    04:00 +13°C° 0.1 mm 3 m/s 733 mmHg 96%
    05:00 +13°C° 0.1 mm 3 m/s 734 mmHg 96%
    06:00 +14°C° 0.1 mm 2 m/s 734 mmHg 96%
    07:00 +13°C° 0 mm 3 m/s 734 mmHg 94%
    08:00 +14°C° 0 mm 3 m/s 735 mmHg 91%
    09:00 +15°C° 0 mm 4 m/s 735 mmHg 88%
    10:00 +15°C° 0.1 mm 4 m/s 736 mmHg 85%
    11:00 +17°C° 0.1 mm 4 m/s 736 mmHg 82%
    12:00 +18°C° 0.1 mm 4 m/s 736 mmHg 79%
    13:00 +18°C° 0.2 mm 4 m/s 736 mmHg 79%
    14:00 +17°C° 0.2 mm 4 m/s 736 mmHg 79%
    15:00 +17°C° 0.2 mm 4 m/s 736 mmHg 80%
    16:00 +15°C° 0 mm 4 m/s 736 mmHg 83%
    17:00 +15°C° 0 mm 4 m/s 736 mmHg 86%
    18:00 +14°C° 0 mm 3 m/s 736 mmHg 90%
    19:00 +14°C° 0.2 mm 4 m/s 736 mmHg 92%
    20:00 +14°C° 0.2 mm 4 m/s 736 mmHg 93%
    21:00 +15°C° 0.2 mm 5 m/s 736 mmHg 95%
    22:00 +15°C° 1.2 mm 5 m/s 735 mmHg 95%
    23:00 +15°C° 1.2 mm 6 m/s 735 mmHg 94%

    26 Setembro, Quinta-feira

    Tempo Temperatura Precipitação Vento Pressão Humidade
    00:00 +15°C° 1.2 mm 6 m/s 734 mmHg 94%
    01:00 +15°C° 0.2 mm 6 m/s 734 mmHg 93%
    02:00 +15°C° 0.2 mm 6 m/s 735 mmHg 93%
    03:00 +15°C° 0.2 mm 6 m/s 735 mmHg 93%
    04:00 +14°C° 0.2 mm 6 m/s 735 mmHg 92%
    05:00 +13°C° 0.2 mm 5 m/s 735 mmHg 92%
    06:00 +12°C° 0.2 mm 4 m/s 735 mmHg 92%
    07:00 +13°C° 0 mm 5 m/s 735 mmHg 88%
    08:00 +13°C° 0 mm 5 m/s 735 mmHg 85%
    09:00 +14°C° 0 mm 5 m/s 736 mmHg 81%
    10:00 +14°C° 0.1 mm 5 m/s 736 mmHg 79%
    11:00 +15°C° 0.1 mm 6 m/s 736 mmHg 77%
    12:00 +15°C° 0.1 mm 6 m/s 736 mmHg 75%
    13:00 +15°C° 0.5 mm 6 m/s 736 mmHg 79%
    14:00 +14°C° 0.5 mm 5 m/s 735 mmHg 83%
    15:00 +13°C° 0.5 mm 5 m/s 735 mmHg 87%
    16:00 +13°C° 0.5 mm 5 m/s 735 mmHg 88%
    17:00 +12°C° 0.5 mm 4 m/s 736 mmHg 88%
    18:00 +12°C° 0.5 mm 4 m/s 736 mmHg 89%
    19:00 +11°C° 0 mm 4 m/s 736 mmHg 90%
    20:00 +11°C° 0 mm 4 m/s 736 mmHg 91%
    21:00 +10°C° 0 mm 4 m/s 736 mmHg 92%
    22:00 +10°C° 0.1 mm 5 m/s 736 mmHg 92%
    23:00 +10°C° 0.1 mm 5 m/s 736 mmHg 91%

    27 Setembro, Sexta-feira

    Tempo Temperatura Precipitação Vento Pressão Humidade
    00:00 +10°C° 0.1 mm 5 m/s 736 mmHg 91%
    01:00 +10°C° 0.1 mm 5 m/s 736 mmHg 92%
    02:00 +11°C° 0.1 mm 4 m/s 736 mmHg 92%
    03:00 +11°C° 0.1 mm 4 m/s 736 mmHg 93%
    04:00 +10°C° 0.1 mm 4 m/s 736 mmHg 93%
    05:00 +10°C° 0.1 mm 4 m/s 736 mmHg 93%
    06:00 +10°C° 0.1 mm 4 m/s 736 mmHg 94%
    07:00 +11°C° 0 mm 4 m/s 736 mmHg 90%
    08:00 +12°C° 0 mm 5 m/s 736 mmHg 87%
    09:00 +13°C° 0 mm 5 m/s 737 mmHg 84%
    10:00 +13°C° 0.3 mm 6 m/s 737 mmHg 81%
    11:00 +14°C° 0.3 mm 6 m/s 737 mmHg 78%
    12:00 +15°C° 0.3 mm 7 m/s 737 mmHg 75%
    13:00 +15°C° 0.2 mm 7 m/s 736 mmHg 76%
    14:00 +15°C° 0.2 mm 7 m/s 736 mmHg 77%
    15:00 +15°C° 0.2 mm 7 m/s 736 mmHg 78%
    16:00 +14°C° 0.2 mm 6 m/s 736 mmHg 81%
    17:00 +13°C° 0.2 mm 6 m/s 736 mmHg 84%
    18:00 +13°C° 0.2 mm 5 m/s 736 mmHg 87%
    19:00 +11°C° 0.1 mm 6 m/s 736 mmHg 87%
    20:00 +11°C° 0.1 mm 6 m/s 736 mmHg 88%
    21:00 +11°C° 0.1 mm 7 m/s 736 mmHg 88%
    22:00 +11°C° 0.4 mm 7 m/s 736 mmHg 90%
    23:00 +11°C° 0.4 mm 7 m/s 735 mmHg 91%
    Mostrar mais